User: anonymous   Login
Location: Unspecified
(0.0000°N, 0.0000°E)
Time: 21:02:22
(UTC+00:00)
Language:

USA 229 DEB - Orbit

View from above orbital plane
View from above orbital plane
View from above satellite
View from above satellite

Ground track
Ground track

The orbit data is extracted from the following two-line orbital elements,

1 37391U 11014B   20054.83569198 0.00000000  00000-0  00000-0 0    03
2 37391  63.4418  37.9294 0156000 359.0641   0.9359 13.40798545    07
Epoch (UTC): 23 February 2020 20:03:23
Eccentricity: 0.0156000
inclination: 63.4418°
perigee height: 989 km
apogee height: 1223 km
right ascension of ascending node: 37.9294°
argument of perigee: 359.0641°
revolutions per day: 13.40798545
mean anomaly at epoch: 0.9359°
orbit number at epoch: 0

The dashed part of the orbit path shows where the satellite is in the earth's shadow,  

DLR